{"data":{"norad_id":61692,"intl_designator":"2024-195F","name":"STARLINK-11315 [DTC]","alt_names":[],"object_type":"PAYLOAD","status":"ACTIVE","operator":null,"country":"US","launch_date":"2024-10-30","launch_site_code":"AFWTR","launch_vehicle":null,"mission":null,"orbit_class":"UNKNOWN","rcs_meters":null,"size_class":null,"mass_kg":null,"dimensions":null,"purposes":["comms"],"wikipedia_slug":null,"has_3d_model":false,"image_url":null,"decayed_at":null,"tle_current":{"epoch":"2026-09-21T22:00:03.000096Z","epoch_age_seconds":66111,"freshness":"FRESH","line1":"1 61692U 24195F   26264.91670139 -.00178462  00000+0 -14951-2 0  9992","line2":"2 61692  53.1571 139.0569 0001183  99.1885 188.2335 15.69788404  5988","mean_motion":15.69788404,"eccentricity":0.0001183,"inclination_deg":53.1571,"raan_deg":139.0569,"arg_perigee_deg":99.1885,"mean_anomaly_deg":188.2335,"bstar":-0.0014951,"rev_number":598,"period_min":91.732108374015,"perigee_km":358.70533478082,"apogee_km":360.29946026227,"semimajor_km":6737.6393975215,"source":"CELESTRAK","updated_at":"2026-09-22T09:00:49.406917Z"}}}